Location: Fayetteville
(35.0530°N, 78.8790°W)
Time: 17:36:55
(UTC-05:00)

Hubble Space Telescope - Pass Details

Date: 30 November 2021
Orbit: 534 x 538 km, 28.5° (Epoch: 28 January)

Event Time Altitude Azimuth Distance (km) Brightness Sun altitude
Exits shadow 05:35:42 22° 227° (SW) 1,191 2.2 -17.9°
Maximum altitude 05:37:21 30° 187° (S) 975 2.1 -17.6°
Drops below altitude 10° 05:40:57 10° 125° (SE) 1,774 4.5 -16.8°
Sets 05:43:24 0° 115° (ESE) 2,664 6.0 -16.4°
